Wind_Speed
3 4 5 5 6 5 7 8 7 4 2 4 6 8 9 8 8 8 8 8 10 11 13 14 16 17 19 20 22 24 25 27 29 31 33 35 38 40 41 43 44 45 44 44 42 41 40 39 38
9 8 8 8 9 7 8 9 10 6 3 1 3 6 7 8 8 9 10 10 11 13 14 16 17 19 21 22 24 25 26 28 30 31 33 35 36 38 40 42 43 45 46 47 47 46 45 43 42
12 12 11 12 12 12 11 10 9 6 3 1 3 5 6 8 9 10 11 12 13 15 16 18 20 22 23 25 26 28 29 30 32 33 34 36 37 38 40 41 43 44 45 47 48 49 49 48 47
14 14 12 13 13 12 12 11 8 6 4 2 3 5 6 8 9 11 12 14 16 18 20 23 25 27 29 30 32 33 35 36 37 38 39 39 40 41 42 43 44 45 46 47 48 49 50 50 50
14 14 12 13 13 12 11 11 8 6 5 4 4 6 7 9 12 14 16 18 21 23 26 28 30 32 34 36 37 39 40 41 42 43 44 45 45 46 46 47 47 47 48 48 49 50 51 51 52
14 13 13 13 13 13 12 11 9 7 6 6 7 8 10 13 16 19 21 24 26 28 31 33 35 37 39 40 42 44 46 47 48 49 50 51 52 52 52 52 52 52 52 52 52 52 52 53 53
14 13 14 14 14 13 12 11 9 8 8 9 11 12 15 17 20 23 25 28 30 32 34 37 39 41 44 46 48 50 52 54 55 57 58 58 59 59 59 59 59 58 57 57 56 56 55 55 55
15 15 15 14 13 12 11 10 9 8 9 11 13 16 18 20 23 26 28 31 34 36 38 41 43 46 49 52 55 57 59 61 63 65 66 66 67 67 67 67 66 65 64 63 62 61 60 59 59
15 15 14 13 11 10 9 9 10 11 12 14 17 19 22 24 27 29 32 35 38 40 43 46 49 52 55 57 60 63 65 68 70 71 73 73 74 74 74 74 73 72 71 69 68 66 65 64 63
14 13 11 10 9 8 8 10 12 14 15 18 20 23 26 28 31 34 36 39 41 44 47 50 53 56 59 62 64 67 69 72 74 76 77 78 79 79 79 79 79 78 77 76 74 72 70 69 68
11 9 8 7 7 8 10 12 14 17 19 21 24 27 29 31 34 36 39 42 45 48 51 54 57 61 63 66 69 71 74 76 78 80 81 82 83 84 84 84 84 83 82 81 79 77 75 74 72
7 6 6 7 8 10 13 15 17 19 21 24 26 28 31 34 37 40 43 46 49 52 56 59 61 64 67 70 73 76 78 81 83 84 85 87 87 88 88 88 89 88 87 85 84 82 80 78 77
4 5 7 9 11 13 16 19 21 22 24 26 28 30 33 36 39 43 46 49 52 55 58 61 64 68 71 74 77 79 82 84 86 87 88 90 91 91 91 91 90 90 90 89 87 86 84 82 81
6 8 11 13 14 17 19 23 25 26 27 29 30 32 34 37 40 44 47 51 54 57 61 64 68 72 75 78 81 83 85 87 88 89 89 89 88 87 86 84 83 82 83 84 84 84 84 84 84
10 12 15 17 18 19 21 23 26 27 29 29 31 32 35 38 42 46 50 53 57 61 65 69 73 76 80 82 85 87 88 89 88 86 84 81 79 77 76 74 73 72 72 73 75 78 80 81 83
14 16 19 21 22 22 23 24 26 28 29 31 33 35 38 42 46 49 53 57 61 66 70 74 77 80 83 85 87 88 88 86 82 79 75 72 70 68 67 65 64 64 64 65 66 68 72 75 78
17 18 21 23 24 23 24 25 28 30 32 34 36 39 42 46 49 53 57 61 66 71 75 78 81 83 85 87 87 86 83 80 76 72 69 66 64 63 61 61 60 60 60 61 62 63 65 69 73
19 19 21 23 24 25 26 27 29 32 34 36 38 42 45 49 52 56 61 66 71 75 78 81 83 85 86 85 83 79 75 72 69 67 64 61 59 58 57 56 56 57 58 59 61 61 62 64 66
23 23 24 25 27 27 27 28 29 33 36 38 40 44 47 51 56 61 66 70 74 78 81 83 84 85 85 82 78 73 69 67 64 63 61 59 57 56 55 53 53 53 54 56 58 60 61 62 63
25 25 25 26 27 27 27 27 29 33 36 39 42 46 50 55 60 65 69 74 77 80 82 83 85 85 82 78 74 70 67 65 63 61 59 58 56 54 52 50 49 49 51 53 55 58 60 61 62
25 25 26 26 27 28 29 27 30 34 37 41 45 49 54 58 63 68 72 76 79 80 82 83 84 82 78 74 70 66 64 62 60 58 56 54 52 50 48 46 45 45 46 48 51 54 57 59 61
24 25 26 26 27 29 31 32 32 36 40 44 48 52 56 61 66 71 74 76 78 80 82 83 81 78 75 71 68 66 64 61 59 56 53 51 48 46 44 43 42 42 42 43 45 49 53 56 59
25 26 26 26 27 28 31 33 36 39 43 47 51 54 59 64 68 71 74 76 78 80 81 81 78 75 72 69 67 65 64 61 58 55 51 48 45 44 42 40 39 39 38 39 41 43 47 52 56
25 26 26 26 27 29 32 35 38 42 45 49 52 56 61 66 69 71 74 76 78 79 80 78 75 72 69 67 66 64 63 60 56 53 49 45 43 41 40 39 37 37 36 36 37 39 42 46 52
24 26 27 29 30 32 35 37 40 43 47 50 54 58 63 66 68 71 74 76 77 78 78 75 73 70 68 66 65 63 61 58 56 52 49 45 43 41 40 39 38 37 36 35 35 36 37 41 46
24 26 28 31 33 33 34 38 41 45 48 52 56 59 63 67 70 73 74 76 77 78 76 73 70 68 66 65 63 62 60 58 56 53 50 47 44 42 41 40 40 39 37 36 35 35 35 37 40
25 26 28 31 34 35 37 40 43 47 50 53 56 60 65 68 71 73 74 76 77 76 74 71 68 66 65 63 62 61 59 58 55 53 51 48 47 45 45 44 43 42 40 38 37 36 35 35 37
25 28 30 32 36 39 40 41 45 47 50 54 58 62 66 69 71 73 74 76 76 74 71 69 67 65 64 62 61 60 59 57 56 54 52 50 50 49 49 48 47 46 44 42 39 38 37 36 35
25 27 29 31 34 39 43 43 45 48 51 55 59 64 67 69 71 73 74 75 74 72 69 67 65 63 62 61 60 60 59 58 57 56 54 54 53 52 52 51 50 48 46 45 43 41 39 37 36
25 27 29 32 35 38 42 44 46 49 52 56 60 64 67 70 71 72 73 73 72 69 67 65 63 62 61 60 60 59 59 58 58 57 56 56 56 55 55 54 51 48 46 45 45 44 41 39 37
Wind_Direction
81 82 99 111 125 138 150 147 143 160 245 307 324 333 338 340 337 331 320 315 309 304 300 296 293 291 289 287 285 284 283 281 280 278 276 274 272 270 268 265 263 261 258 256 254 253 252 251 251
80 86 97 102 114 121 131 132 134 148 173 276 313 323 330 332 335 329 319 313 307 303 301 299 297 295 293 292 290 289 287 286 284 282 280 278 275 273 271 268 266 263 260 258 256 254 253 251 251
95 97 102 113 114 114 114 112 115 123 118 45 332 331 329 327 325 320 317 315 313 312 310 308 306 304 303 301 300 298 296 294 291 289 286 284 281 278 275 272 269 266 263 260 257 255 253 252 250
99 101 104 108 106 107 107 103 103 100 86 48 357 339 335 331 327 325 324 322 320 318 316 313 311 309 307 305 303 301 300 298 295 293 291 288 286 283 280 277 274 270 267 263 259 256 254 252 250
94 97 101 100 100 99 96 93 90 81 65 40 10 353 346 340 335 330 326 323 320 317 314 312 310 308 306 304 302 300 298 296 294 292 291 289 287 284 282 279 277 274 271 267 264 260 256 253 251
91 96 97 96 95 93 90 86 80 68 50 30 10 356 347 339 331 327 324 321 318 315 313 310 308 306 304 302 300 298 296 294 293 291 290 288 286 284 282 280 277 275 273 270 267 264 260 256 252
94 97 95 93 90 87 84 79 70 53 31 9 356 345 338 332 327 323 320 317 315 313 311 309 307 305 304 302 300 299 297 295 293 292 290 288 286 284 282 280 278 275 273 271 268 265 262 259 255
103 99 94 89 84 78 70 60 46 27 6 350 340 334 330 326 323 320 318 316 314 312 310 309 307 306 304 303 302 300 298 296 295 293 291 289 287 285 283 280 278 275 273 271 268 266 263 261 258
100 94 89 83 76 65 49 31 14 360 347 337 331 328 326 324 321 319 317 316 314 312 311 309 308 306 305 303 301 300 298 296 294 292 291 289 287 285 283 280 278 276 273 271 268 265 263 260 258
98 93 84 73 59 42 22 4 352 343 336 331 328 326 324 322 321 319 317 315 313 311 310 309 307 305 303 302 300 298 297 295 293 292 290 288 286 283 281 279 277 275 273 270 267 264 261 259 257
96 86 69 50 28 9 354 343 336 333 329 328 326 324 323 321 319 317 315 314 312 311 310 308 307 305 303 302 300 299 297 295 293 291 289 287 285 283 281 279 276 274 272 269 266 264 260 258 255
81 61 38 14 357 344 335 330 327 326 324 323 322 322 321 320 318 316 315 314 313 311 310 308 307 306 304 303 301 299 298 296 294 292 290 287 285 282 280 278 275 273 270 267 265 262 259 256 253
44 14 357 346 338 332 327 324 323 322 322 321 322 322 321 319 317 316 314 313 312 311 310 309 308 307 305 304 303 301 300 298 296 294 291 289 286 284 281 279 276 273 269 266 263 260 258 254 251
346 340 335 332 330 327 324 321 320 321 321 321 321 321 319 317 315 314 314 313 312 312 311 311 310 309 308 307 306 304 303 301 299 297 294 292 289 286 283 280 277 273 270 266 263 259 256 253 249
327 325 324 324 324 322 320 317 317 317 317 318 318 318 317 316 315 315 315 314 314 314 314 314 313 312 312 311 309 308 306 304 302 300 297 295 291 288 284 280 276 272 269 265 261 257 253 250 247
317 319 319 321 320 318 317 316 315 315 316 318 319 318 318 318 317 317 317 317 318 318 318 317 317 316 315 314 312 310 308 307 305 303 300 297 293 289 285 280 276 271 266 262 259 255 251 248 244
314 316 313 311 313 316 319 319 319 318 319 321 321 321 320 320 319 319 320 321 321 321 321 320 319 318 317 316 314 312 311 310 308 305 302 299 295 291 287 282 276 271 265 261 257 254 250 247 243
309 307 308 313 320 324 325 324 323 321 322 323 323 323 322 322 323 324 324 324 324 324 323 322 321 320 318 317 316 315 314 312 310 308 305 302 298 294 290 284 279 272 266 261 256 252 249 247 243
312 317 322 325 326 327 327 328 325 323 322 324 325 325 325 327 328 327 327 327 326 326 324 323 322 321 319 318 318 317 315 314 312 310 308 305 302 298 293 288 281 274 268 262 257 252 249 246 243
321 325 327 327 327 327 329 331 325 323 324 326 327 329 331 331 330 329 329 329 328 326 325 324 323 322 321 321 321 320 319 318 316 315 312 309 306 302 297 292 285 278 270 265 259 253 248 245 243
324 326 327 328 329 329 329 331 327 326 328 330 332 334 333 332 331 330 331 330 328 327 325 325 324 324 324 324 323 323 322 321 319 317 314 311 308 304 300 295 290 283 275 268 262 255 249 245 242
325 327 328 330 331 332 329 330 331 331 332 334 335 335 334 333 332 332 331 330 328 327 327 326 326 326 326 326 326 325 324 323 322 320 318 315 313 309 305 300 295 289 282 273 266 259 252 246 242
327 329 331 332 332 331 329 332 335 335 336 336 336 335 334 333 333 333 331 330 329 329 328 328 328 328 328 328 328 328 327 326 326 324 322 319 316 313 310 306 301 295 289 281 272 264 256 248 243
329 331 332 332 333 334 336 336 336 337 337 336 336 336 335 335 334 332 332 331 330 330 330 330 330 330 330 330 330 330 330 329 329 327 325 323 319 316 312 309 306 301 294 287 279 270 261 252 245
332 332 333 335 338 340 339 338 338 337 337 338 337 336 336 335 334 334 333 332 332 331 332 332 331 332 332 332 332 332 332 332 331 330 327 325 321 318 313 310 306 302 297 291 283 275 267 258 249
335 336 336 337 338 339 339 340 338 338 339 338 337 336 336 336 336 335 334 333 333 333 333 333 333 334 334 334 334 334 335 334 333 332 330 327 324 320 316 311 306 301 297 291 285 277 271 263 253
337 338 338 336 336 338 342 341 338 339 339 338 337 337 337 338 337 336 335 335 335 335 335 335 335 335 336 336 336 337 336 336 336 334 332 328 325 321 317 312 306 301 295 290 283 277 271 265 257
339 338 338 337 337 338 341 342 340 339 338 337 337 338 339 339 338 337 337 336 336 336 336 337 337 337 338 338 338 339 338 338 337 336 333 330 326 321 316 311 305 299 293 287 281 275 269 264 258
338 337 337 337 338 337 338 341 338 338 337 337 339 340 341 340 339 339 338 338 337 337 338 339 339 339 339 340 340 341 341 340 339 338 335 332 329 324 320 314 307 300 291 283 277 271 266 260 256
338 337 337 338 338 338 337 338 338 338 338 339 341 341 341 341 341 340 339 339 339 339 339 340 340 341 341 342 343 343 343 343 341 340 338 335 332 328 323 318 311 303 293 283 273 266 261 256 252
Height
5877 5878 5880 5881 5882 5881 5880 5880 5881 5881 5881 5880 5879 5878 5878 5878 5879 5881 5877 5874 5873 5871 5870 5868 5866 5864 5862 5861 5859 5857 5855 5853 5851 5849 5848 5847 5845 5844 5844 5844 5844 5844 5844 5844 5844 5845 5845 5845 5846
5878 5879 5881 5882 5881 5881 5881 5880 5880 5881 5881 5880 5879 5879 5878 5877 5877 5876 5874 5872 5871 5869 5867 5865 5863 5861 5859 5857 5855 5853 5851 5848 5846 5844 5842 5840 5839 5837 5836 5835 5834 5834 5834 5835 5835 5836 5837 5837 5838
5879 5880 5881 5881 5880 5881 5882 5880 5880 5881 5881 5881 5880 5879 5878 5877 5876 5874 5872 5871 5869 5867 5865 5862 5860 5857 5855 5853 5850 5848 5846 5843 5841 5839 5836 5834 5832 5830 5828 5827 5825 5825 5824 5824 5825 5826 5827 5828 5829
5881 5882 5882 5881 5881 5882 5881 5881 5881 5881 5881 5880 5880 5879 5877 5877 5875 5874 5871 5870 5867 5865 5862 5859 5856 5854 5851 5848 5845 5842 5840 5837 5834 5832 5829 5827 5825 5823 5821 5819 5817 5816 5815 5814 5814 5815 5816 5817 5819
5882 5883 5883 5882 5882 5882 5882 5882 5882 5881 5881 5880 5880 5879 5878 5877 5875 5872 5870 5868 5865 5862 5859 5856 5852 5849 5845 5842 5839 5835 5832 5829 5826 5823 5820 5818 5815 5813 5811 5809 5807 5806 5805 5804 5804 5804 5805 5806 5807
5884 5884 5884 5884 5884 5883 5883 5883 5883 5882 5881 5881 5880 5880 5877 5875 5873 5870 5867 5864 5861 5858 5855 5851 5847 5843 5839 5835 5831 5827 5823 5820 5816 5813 5810 5807 5804 5802 5799 5798 5796 5794 5793 5793 5793 5793 5793 5794 5795
5886 5886 5885 5885 5885 5884 5885 5884 5884 5883 5882 5881 5880 5878 5876 5873 5871 5867 5864 5860 5857 5853 5849 5845 5840 5835 5831 5826 5822 5817 5813 5808 5804 5801 5797 5794 5791 5788 5785 5783 5781 5781 5780 5780 5780 5780 5780 5781 5782
5888 5888 5887 5887 5887 5886 5886 5885 5884 5884 5883 5881 5879 5877 5874 5871 5868 5864 5860 5856 5851 5847 5842 5837 5832 5827 5822 5816 5810 5805 5800 5795 5790 5786 5782 5779 5775 5771 5769 5766 5765 5764 5764 5764 5764 5765 5766 5767 5768
5890 5891 5889 5889 5889 5888 5887 5886 5885 5883 5881 5879 5877 5874 5871 5867 5863 5859 5854 5850 5845 5839 5834 5829 5823 5817 5811 5805 5799 5793 5786 5780 5775 5770 5766 5761 5757 5753 5749 5746 5745 5744 5744 5745 5746 5747 5748 5751 5753
5893 5892 5891 5891 5890 5888 5887 5886 5884 5881 5879 5877 5874 5870 5866 5862 5858 5853 5848 5843 5837 5832 5826 5820 5814 5808 5801 5794 5787 5780 5772 5765 5759 5753 5748 5743 5737 5733 5729 5725 5723 5722 5722 5723 5725 5726 5729 5732 5735
5894 5893 5892 5891 5890 5888 5886 5884 5882 5880 5877 5874 5870 5866 5862 5857 5852 5847 5842 5836 5830 5824 5818 5811 5803 5796 5788 5780 5772 5764 5756 5748 5740 5733 5727 5721 5715 5710 5706 5702 5699 5698 5698 5699 5701 5703 5706 5710 5714
5895 5894 5893 5891 5889 5887 5885 5882 5880 5877 5874 5870 5866 5862 5857 5851 5846 5840 5834 5828 5821 5814 5807 5800 5791 5783 5774 5764 5755 5746 5737 5728 5719 5711 5704 5697 5690 5685 5680 5676 5673 5672 5672 5672 5674 5677 5681 5686 5691
5896 5894 5892 5890 5888 5885 5882 5879 5876 5873 5870 5866 5862 5857 5852 5845 5839 5833 5827 5820 5813 5805 5796 5788 5778 5768 5758 5748 5737 5726 5716 5705 5695 5686 5677 5669 5662 5656 5651 5647 5643 5642 5642 5643 5646 5649 5654 5660 5666
5895 5893 5891 5888 5886 5883 5879 5876 5872 5868 5865 5861 5857 5852 5846 5840 5833 5827 5819 5811 5803 5794 5785 5775 5764 5752 5741 5729 5717 5704 5692 5680 5669 5658 5648 5640 5632 5626 5621 5617 5613 5612 5611 5612 5615 5620 5626 5632 5639
5894 5892 5889 5887 5884 5881 5877 5873 5869 5865 5861 5857 5853 5848 5841 5834 5827 5819 5810 5801 5792 5782 5771 5760 5748 5735 5721 5707 5694 5680 5667 5654 5642 5632 5621 5612 5604 5598 5593 5590 5587 5585 5584 5584 5587 5591 5597 5603 5611
5893 5890 5887 5884 5881 5878 5876 5871 5865 5860 5856 5852 5847 5841 5835 5827 5819 5810 5800 5790 5779 5768 5757 5744 5730 5716 5701 5686 5671 5657 5643 5630 5618 5607 5597 5588 5581 5574 5569 5566 5563 5561 5560 5560 5562 5565 5570 5576 5583
5891 5888 5885 5882 5878 5875 5871 5866 5860 5855 5850 5845 5840 5834 5826 5819 5810 5800 5789 5778 5766 5754 5741 5727 5712 5698 5683 5667 5651 5635 5621 5608 5596 5585 5576 5568 5560 5553 5548 5544 5542 5540 5539 5539 5540 5543 5547 5552 5558
5889 5887 5883 5879 5874 5870 5866 5861 5855 5849 5844 5839 5833 5826 5819 5810 5800 5789 5777 5765 5752 5738 5724 5710 5695 5681 5666 5650 5634 5618 5603 5590 5578 5567 5557 5549 5541 5534 5529 5524 5521 5519 5518 5518 5520 5523 5527 5531 5537
5885 5882 5878 5873 5869 5865 5861 5856 5851 5844 5839 5833 5827 5819 5810 5800 5789 5777 5765 5752 5738 5724 5709 5695 5680 5664 5649 5634 5619 5605 5591 5577 5564 5552 5542 5533 5524 5517 5511 5506 5502 5500 5498 5498 5500 5503 5507 5512 5516
5880 5877 5873 5870 5865 5861 5857 5853 5847 5840 5834 5828 5820 5811 5800 5789 5778 5766 5753 5739 5725 5710 5695 5679 5663 5647 5631 5616 5602 5588 5574 5561 5549 5537 5526 5517 5508 5500 5494 5489 5485 5482 5480 5480 5480 5483 5488 5492 5497
5876 5873 5870 5866 5862 5857 5853 5850 5843 5836 5829 5821 5812 5802 5791 5780 5768 5756 5742 5727 5712 5697 5681 5665 5648 5631 5616 5601 5588 5575 5562 5549 5537 5526 5514 5503 5494 5486 5479 5474 5469 5466 5463 5463 5463 5464 5468 5474 5478
5873 5870 5866 5862 5858 5853 5848 5844 5838 5830 5822 5813 5804 5794 5783 5771 5759 5745 5731 5717 5701 5685 5667 5650 5633 5617 5602 5588 5575 5562 5550 5538 5525 5513 5502 5491 5481 5474 5467 5461 5456 5452 5449 5447 5447 5447 5450 5455 5460
5870 5866 5862 5858 5853 5849 5843 5838 5833 5824 5815 5806 5797 5786 5775 5763 5749 5736 5722 5706 5689 5672 5655 5637 5620 5604 5589 5575 5562 5549 5536 5524 5512 5501 5490 5480 5471 5463 5456 5450 5444 5440 5436 5433 5432 5432 5433 5436 5442
5866 5862 5858 5854 5850 5846 5839 5832 5825 5817 5809 5800 5790 5779 5767 5754 5741 5727 5711 5694 5677 5660 5643 5626 5609 5594 5579 5565 5551 5538 5526 5513 5502 5491 5481 5471 5462 5454 5446 5440 5434 5429 5424 5421 5419 5418 5418 5420 5424
5863 5859 5854 5849 5844 5840 5833 5826 5820 5811 5803 5793 5783 5771 5759 5747 5733 5718 5701 5685 5667 5650 5633 5616 5600 5585 5570 5556 5542 5528 5515 5503 5491 5481 5471 5462 5453 5445 5437 5430 5424 5419 5414 5410 5407 5405 5405 5406 5408
5859 5855 5850 5844 5839 5835 5829 5821 5815 5805 5796 5786 5776 5764 5752 5739 5723 5708 5692 5675 5657 5640 5623 5607 5591 5576 5561 5547 5533 5520 5506 5494 5482 5471 5461 5451 5443 5435 5427 5420 5413 5407 5402 5398 5395 5393 5392 5392 5394
5856 5851 5847 5841 5835 5829 5824 5817 5807 5798 5790 5780 5770 5758 5745 5730 5714 5698 5682 5664 5647 5630 5614 5598 5583 5568 5553 5539 5526 5512 5499 5486 5474 5462 5451 5441 5432 5423 5415 5407 5400 5394 5389 5385 5382 5380 5379 5380 5380
5853 5847 5843 5837 5829 5823 5818 5811 5803 5793 5784 5775 5763 5750 5736 5721 5706 5689 5672 5655 5638 5622 5605 5589 5574 5560 5546 5532 5518 5505 5491 5478 5466 5454 5442 5431 5421 5411 5401 5392 5385 5378 5373 5369 5367 5366 5366 5366 5367
5850 5845 5839 5834 5827 5819 5811 5809 5799 5789 5779 5768 5756 5742 5728 5713 5697 5681 5664 5647 5630 5614 5598 5583 5568 5554 5540 5526 5512 5498 5485 5471 5458 5445 5433 5421 5409 5397 5386 5375 5366 5359 5354 5350 5349 5349 5350 5352 5354
5847 5842 5836 5831 5824 5815 5808 5804 5793 5783 5773 5761 5748 5735 5721 5705 5689 5672 5656 5639 5623 5607 5592 5577 5563 5549 5535 5521 5507 5492 5479 5465 5451 5438 5424 5411 5397 5383 5370 5357 5346 5337 5331 5328 5327 5329 5332 5336 5339